Weather History for Harlingen, TX

Change the Weather History Date:

Tuesday, April 16, 2013

  Actual Average Record
Temperature  
Mean Temperature 84 °F 76 °F  
Max Temperature 96 °F 86 °F 100 °F (1920)
Min Temperature 72 °F 65 °F 41 °F (1928)
Degree Days  
Heating Degree Days 0 0  
Month to date heating degree days 0 7  
Since 1 July heating degree days 391 621  
Cooling Degree Days 19 11  
Month to date cooling degree days 165 151  
Year to date cooling degree days 520 446  
Growing Degree Days 33 (Base 50)    
Moisture  
Dew Point 71 °F    
Average Humidity 64    
Maximum Humidity 87    
Minimum Humidity 41    
Precipitation  
Precipitation 0.00 in 0.07 in 2.77 in (2010)
Month to date precipitation T 0.91  
Year to date precipitation 2.80 4.67  
Sea Level Pressure  
Sea Level Pressure 29.77 in    
Wind  
Wind Speed 17 mph (SE)    
Max Wind Speed 33 mph    
Max Gust Speed 43 mph    
Visibility 7 miles    
Events      
T = Trace of Precipitation, MM = Missing Value Source: NWS Daily Summary

Daily Weather History Graph

Daily Weather History Graph

Search for Another Location

Airport:

Trip Planner

Search our weather history database for the weather conditions in past years. The results will help you decide how hot, cold, wet, or windy it might be!

Date:

Astronomy

Apr. 16, 2013 Rise Set
Actual Time 7:06 AM CDT 7:54 PM CDT
Civil Twilight 6:42 AM CDT 8:18 PM CDT
Nautical Twilight 6:14 AM CDT 8:46 PM CDT
Astronomical Twilight 5:46 AM CDT 9:15 PM CDT
Moon 11:40 AM CDT (4/16) 12:38 AM CDT (4/16)
Length of Visible Light 13h 36m
Length of Day
12h 48m
Waxing Crescent, 33% of the Moon is Illuminated
Apr 16
Waxing Crescent
Apr 18
First Quarter
Apr 25
Full
May 2
Last Quarter
May 9
New

Hourly Weather History & Observations

Time (CDT) Temp. Heat Index Dew Point Humidity Pressure Visibility Wind Dir Wind Speed Gust Speed Precip Events Conditions
12:52 AM 73.9 °F - 69.1 °F 85% 29.79 in 6.0 mi SE 10.4 mph - N/A   Haze
1:52 AM 73.9 °F - 69.1 °F 85% 29.77 in 5.0 mi SE 12.7 mph - N/A   Haze
2:52 AM 73.9 °F - 70.0 °F 87% 29.76 in 5.0 mi SSE 11.5 mph - N/A   Partly Cloudy
3:52 AM 73.9 °F - 69.1 °F 85% 29.74 in 5.0 mi SSE 11.5 mph - N/A   Haze
4:33 AM 73.4 °F - 69.8 °F 88% 29.74 in 5.0 mi SSE 11.5 mph - N/A   Mostly Cloudy
4:52 AM 73.9 °F - 70.0 °F 87% 29.74 in 5.0 mi SSE 10.4 mph - N/A   Mostly Cloudy
4:59 AM 73.4 °F - 69.8 °F 88% 29.74 in 5.0 mi SSE 11.5 mph - N/A   Scattered Clouds
5:52 AM 73.0 °F - 70.0 °F 90% 29.75 in 5.0 mi SSE 12.7 mph - N/A   Partly Cloudy
6:52 AM 73.0 °F - 70.0 °F 90% 29.77 in 4.0 mi SSE 11.5 mph - N/A   Clear
7:52 AM 73.0 °F - 70.0 °F 90% 29.78 in 3.0 mi SE 9.2 mph - N/A   Clear
8:52 AM 77.0 °F - 70.0 °F 79% 29.78 in 6.0 mi SSE 15.0 mph - N/A   Haze
9:52 AM 82.9 °F 86.5 °F 69.1 °F 63% 29.80 in 8.0 mi SSE 18.4 mph 25.3 mph N/A   Clear
10:52 AM 84.9 °F 88.8 °F 69.1 °F 59% 29.80 in 10.0 mi SSE 23.0 mph 27.6 mph N/A   Clear
11:52 AM 86.0 °F 89.4 °F 68.0 °F 55% 29.80 in 10.0 mi SE 21.9 mph - N/A   Clear
12:52 PM 87.1 °F 90.6 °F 68.0 °F 53% 29.80 in 10.0 mi SSE 16.1 mph - N/A   Clear
1:52 PM 91.9 °F 94.5 °F 66.0 °F 42% 29.77 in 10.0 mi SSE 20.7 mph 27.6 mph N/A   Clear
2:52 PM 93.9 °F 97.5 °F 66.9 °F 41% 29.74 in 10.0 mi SE 26.5 mph 32.2 mph N/A   Clear
3:52 PM 91.0 °F 97.6 °F 71.1 °F 52% 29.73 in 9.0 mi SE 23.0 mph 28.8 mph N/A   Clear
4:52 PM 87.1 °F 93.6 °F 72.0 °F 61% 29.73 in 8.0 mi ESE 23.0 mph 29.9 mph N/A   Clear
5:41 PM 82.4 °F 87.2 °F 71.6 °F 70% 29.75 in 8.0 mi ESE 13.8 mph - N/A   Mostly Cloudy
5:52 PM 82.0 °F 87.4 °F 73.0 °F 74% 29.74 in 9.0 mi ESE 15.0 mph - N/A   Mostly Cloudy
6:12 PM 82.4 °F 88.2 °F 73.4 °F 74% 29.73 in 9.0 mi East 17.3 mph - N/A   Scattered Clouds
6:38 PM 82.4 °F 88.2 °F 73.4 °F 74% 29.74 in 8.0 mi ESE 17.3 mph - N/A   Mostly Cloudy
6:52 PM 82.0 °F 87.4 °F 73.0 °F 74% 29.75 in 9.0 mi SE 18.4 mph - N/A   Mostly Cloudy
7:52 PM 81.0 °F 85.8 °F 73.0 °F 77% 29.78 in 8.0 mi SE 13.8 mph 24.2 mph N/A   Overcast
8:32 PM 80.6 °F 85.4 °F 73.4 °F 79% 29.76 in 8.0 mi SE 20.7 mph - N/A   Overcast
8:52 PM 79.0 °F - 73.0 °F 82% 29.70 in 8.0 mi ESE 32.2 mph 39.1 mph N/A   Overcast
9:18 PM 78.8 °F - 73.4 °F 83% 29.74 in 7.0 mi SE 25.3 mph 38.0 mph N/A   Overcast
9:52 PM 79.0 °F - 73.0 °F 82% 29.81 in 7.0 mi SSE 17.3 mph - N/A   Overcast
10:32 PM 78.8 °F - 73.4 °F 83% 29.83 in 6.0 mi SSE 17.3 mph 23.0 mph N/A   Haze
10:52 PM 79.0 °F - 73.0 °F 82% 29.82 in 6.0 mi SSE 17.3 mph 24.2 mph N/A   Haze
11:52 PM 78.1 °F - 73.0 °F 84% 29.83 in 6.0 mi SSE 13.8 mph 23.0 mph N/A   Haze